Location: Blanot
(47.1713°N, 4.2340°E)
Time: 03:28:08
(UTC+00:00)

Cosmos 1802 Rocket - Pass Details

Date: 14 July 2020
Orbit: 954 x 1011 km, 82.9° (Epoch: 06 August)

Event Time Altitude Azimuth Distance (km) Brightness Sun altitude
Exits shadow 01:03:01 26° 166° (SSE) 1,854 5.0 -19.2°
Maximum altitude 01:06:41 64° 93° (E) 1,113 4.3 -19.0°
Drops below altitude 10° 01:13:03 10° 14° (NNE) 2,803 7.7 -18.6°
Sets 01:15:37 0° 12° (NNE) 3,758 8.7 -18.5°
